sat.trackr.live / text

‹ back to catalog

STARLINK-5186

NORAD 54177 · 2022-141W

PAYLOAD ACTIVE UNKNOWN

§ Identity

Operator
Country
US
Launch date
2022-10-28
Launch site
AFWTR
Launch vehicle
Mass (kg)
RCS (m²)

Purposes: comms

External: N2YO · Heavens-Above · Gunter

§ Orbital elements

Epoch: 2026-09-20T07:20:24.864576Z

Period
93.85 min
Inclination
53.1588°
Eccentricity
0.0001347
Mean motion
15.34399800 rev/d
Perigee alt
461.8 km
Apogee alt
463.6 km
Semi-major
6,840.8 km
B*
2.0414e-5
RAAN
194.6686°
Arg perigee
101.1949°
Mean anomaly
258.9205°
Rev number
21,545

§ Raw data

STARLINK-51861 54177U 22141W   26263.30584334  .00000313  00000+0  20414-4 0  99942 54177  53.1588 194.6686 0001347 101.1949 258.9205 15.34399800215456

JSON: /api/v1/satellites/54177 · /tle

For live sub-satellite position, see the globe view (requires WebGL).

§ Visibility from observer

Set your observer location to see the next 7 days of passes ≥ 10°. The values pass through the URL so the page stays shareable.

No JS? Fill the form by hand. The geolocation button needs JavaScript.